666  
NZUS01 KOTX 231925  
RWROTX  
 
EASTERN WASHINGTON/NORTHERN IDAHO ROUNDUP  
NATIONAL WEATHER SERVICE, SPOKANE WA  
1200 PM PDT SAT JUN 23 2018  
 
NOTE: "FAIR" INDICATED FEW OR NO CLOUDS BELOW 12,000 FEET WITH NO  
SIGNIFICANT WEATHER AND/OR S TO VISIBILITY
.  
   
..NORTHEAST WASHINGTON AND NORTHERN IDAHO PANHANDLE
 
 
 
CITY SKY/WX TMP DP RH WIND PRES REMARKS
 
SPOKANE INTL MOSUNNY 70 46 42 W8G18 30.00F  
SPOKANE DOWNTO PTSUNNY 70 50 49 VRB3 30.00F  
COEUR D ALENE CLOUDY 66 50 56 VRB3 30.03R  
DEER PARK CLOUDY 67 52 58 VRB3 30.01S  
SANDPOINT CLOUDY 63 54 72 W6 30.00S  
BONNERS FERRY CLOUDY 63 55 77 SW9 29.98S  
   
..SOUTHEAST WASHINGTON AND SOUTHERN IDAHO PANHANDLE
 
 
 
CITY SKY/WX TMP DP RH WIND PRES REMARKS
 
WALLA WALLA SUNNY 73 45 36 S12 30.04F  
PULLMAN/MOSCOW MOSUNNY 66 49 54 W13 30.06S  
LEWISTON PTSUNNY 75 47 36 VRB5 30.00S  
LOWELL N/A 70 50 49 VRB3 30.00S  
GRANGEVILLE MOCLDY 64 46 52 N6 30.05S  
   
..COLUMBIA BASIN
 
 
 
CITY SKY/WX TMP DP RH WIND PRES REMARKS
 
EPHRATA MOSUNNY 80 43 26 W12 29.97F  
MOSES LAKE MOSUNNY 78 43 28 VRB7 29.98S  
PASCO SUNNY 78 45 30 MISG 30.01F  
RICHLAND CLEAR 79 45 29 CALM 30.00F  
HERMISTON SUNNY 79 46 31 N7 30.03S  
PENDLETON SUNNY 73 41 31 SW12 30.05F  
   
..EAST SLOPES CASCADES
 
 
 
CITY SKY/WX TMP DP RH WIND PRES REMARKS
 
THE DALLES SUNNY 77 47 34 NW22 30.06F  
YAKIMA SUNNY 78 44 29 CALM 30.02S  
ELLENSBURG SUNNY 73 49 42 NW21 30.04S  
STAMPEDE PASS FOG 48 47 96 S8 30.19R VSB 1/4  
WENATCHEE SUNNY 77 43 29 NW14 29.99F  
WINTHROP FAIR 76 47 36 NW14 30.00F  
OMAK SUNNY 79 51 37 N13 29.98S  
SUNNYSIDE CLEAR 18 -4 38 S10G17 30.01F WCI 6  
   
..SOUTHERN BRITISH COLUMBIA
 
 
 
CITY SKY/WX TMP DP RH WIND PRES REMARKS
 
PENTICTON PTSUNNY 73 52 46 NE10 29.99S  
CASTLEGAR PTSUNNY 68 57 68 N2 29.97S  
CRANBROOK LGT RAIN 59 54 82 NE3 29.98S  
OSOYOOS N/A 75 50 41 NW7 N/A  
CRESTON N/A 64 57 77 SW2 N/A  
   
..WESTERN MONTANA
 
 
 
CITY SKY/WX TMP DP RH WIND PRES REMARKS
 
KALISPELL LGT RAIN 56 55 97 S10 29.98R FOG  
LIBBY N/A 63 55 77 CALM 29.97R  
MISSOULA LGT RAIN 54 50 86 CALM 30.03S  
   
..NEIGHBORING CITIES
 
 
 
CITY SKY/WX TMP DP RH WIND PRES REMARKS
 
SEATTLE CLOUDY 62 53 72 VRB3 30.21R  
PORTLAND PTSUNNY 68 51 54 NW6 30.17F  
BOISE SUNNY 74 46 36 NW17G26 29.98F  
GREAT FALLS MOSUNNY 71 49 45 SW13 29.87S  
CALGARY LGT RAIN 59 55 88 N20 29.92R  
 
CLICK HERE TO GO TO PREVIOUS BULLETINS.

The Nexlab WA Page
The Nexlab ID Page Main Text Page